Change the Weather History Date:

Friday, May 3, 2013

  Actual Average (KPYM) Record (KPYM)
Temperature  
Mean Temperature 45 °F -  
Max Temperature 51 °F 62 °F 90 °F (2001)
Min Temperature 39 °F 41 °F 25 °F (1966)
Degree Days  
Heating Degree Days 20    
Moisture  
Dew Point 42 °F    
Average Humidity 82    
Maximum Humidity 100    
Minimum Humidity 71    
Precipitation  
Precipitation 0.00 in - - ()
Sea Level Pressure  
Sea Level Pressure 30.47 in    
Wind  
Wind Speed 7 mph (NNE)    
Max Wind Speed 14 mph    
Max Gust Speed 21 mph    
Visibility 10 miles    
Events      
Averages and records for this station are not official NWS values.
T = Trace of Precipitation, MM = Missing Value Source: NWS Daily Summary

Daily Weather History Graph

Daily Weather History Graph

Search for Another Location

Airport or City:

Trip Planner

Search our weather history database for the weather conditions in past years. The results will help you decide how hot, cold, wet, or windy it might be!

Date:

Astronomy

May. 03, 2013 Rise Set
Actual Time 5:35 AM EDT 7:44 PM EDT
Civil Twilight 5:04 AM EDT 8:15 PM EDT
Nautical Twilight 4:27 AM EDT 8:52 PM EDT
Astronomical Twilight 3:45 AM EDT 9:34 PM EDT
Moon 2:04 AM EDT 1:29 PM EDT
Length of Visible Light 15h 10m
Length of Day
14h 08m
Last Quarter, 37% of the Moon is Illuminated
May 3
Last Quarter
May 9
New
May 18
First Quarter
May 25
Full
May 31
Last Quarter

Hourly Weather History & Observations

Time (EDT) Temp. Windchill Dew Point Humidity Pressure Visibility Wind Dir Wind Speed Gust Speed Precip Events Conditions
12:15 AM 48.2 °F - 42.8 °F 82% 30.49 in 10.0 mi North 5.8 mph - N/A   Clear
12:35 AM 48.2 °F - 42.8 °F 82% 30.48 in 10.0 mi NNW 6.9 mph - N/A   Clear
12:55 AM 48.2 °F - 42.8 °F 82% 30.48 in 10.0 mi NNW 6.9 mph - N/A   Clear
1:15 AM 48.2 °F - 42.8 °F 82% 30.47 in 10.0 mi North 5.8 mph - N/A   Clear
1:35 AM 48.2 °F - 42.8 °F 82% 30.47 in 10.0 mi North 8.1 mph - N/A   Clear
1:55 AM 48.2 °F - 42.8 °F 82% 30.46 in 10.0 mi North 8.1 mph - N/A   Clear
2:15 AM 48.2 °F - 42.8 °F 82% 30.46 in 10.0 mi North 10.4 mph 17.3 mph N/A   Clear
2:35 AM 48.2 °F - 42.8 °F 82% 30.46 in 10.0 mi North 9.2 mph 16.1 mph N/A   Clear
2:55 AM 48.2 °F - 42.8 °F 82% 30.46 in 10.0 mi NNE 5.8 mph - N/A   Clear
3:15 AM 48.2 °F - 42.8 °F 82% 30.46 in 10.0 mi NNE 5.8 mph - N/A   Clear
3:35 AM 48.2 °F - 42.8 °F 82% 30.46 in 10.0 mi NE 6.9 mph - N/A   Clear
3:55 AM 46.4 °F 43.5 °F 42.8 °F 87% 30.46 in 10.0 mi NNE 5.8 mph - N/A   Clear
4:15 AM 46.4 °F 44.3 °F 42.8 °F 87% 30.47 in 10.0 mi NNE 4.6 mph - N/A   Partly Cloudy
4:35 AM 46.4 °F 44.3 °F 42.8 °F 87% 30.47 in 10.0 mi NNE 4.6 mph - N/A   Partly Cloudy
4:55 AM 46.4 °F 44.3 °F 42.8 °F 87% 30.47 in 10.0 mi North 4.6 mph - N/A   Clear
5:15 AM 46.4 °F 43.5 °F 42.8 °F 87% 30.47 in 10.0 mi North 5.8 mph - N/A   Partly Cloudy
5:35 AM 46.4 °F 43.5 °F 42.8 °F 87% 30.48 in 10.0 mi North 5.8 mph - N/A   Clear
5:55 AM 46.4 °F 43.5 °F 42.8 °F 87% 30.49 in 10.0 mi North 5.8 mph - N/A   Clear
6:15 AM 48.2 °F - 42.8 °F 82% 30.49 in 10.0 mi North 4.6 mph - N/A   Clear
6:35 AM 48.2 °F - 42.8 °F 82% 30.50 in 10.0 mi North 5.8 mph - N/A   Clear
6:55 AM 48.2 °F - 39.2 °F 71% 30.50 in 10.0 mi NNE 9.2 mph - N/A   Clear
7:15 AM 48.2 °F - 42.8 °F 82% 30.51 in 10.0 mi North 9.2 mph 16.1 mph N/A   Scattered Clouds
7:35 AM 48.2 °F - 42.8 °F 82% 30.52 in 10.0 mi NNE 12.7 mph 17.3 mph N/A   Mostly Cloudy
7:55 AM 48.2 °F - 42.8 °F 82% 30.52 in 10.0 mi North 11.5 mph 18.4 mph N/A   Overcast
8:15 AM 48.2 °F - 41.0 °F 76% 30.53 in 10.0 mi NNE 13.8 mph 20.7 mph N/A   Overcast
8:35 AM 48.2 °F - 41.0 °F 76% 30.53 in 10.0 mi NNE 11.5 mph 17.3 mph N/A   Overcast
8:55 AM 48.2 °F - 41.0 °F 76% 30.53 in 10.0 mi NNE 11.5 mph 16.1 mph N/A   Overcast
9:15 AM 48.2 °F - 41.0 °F 76% 30.53 in 10.0 mi NNE 11.5 mph 17.3 mph N/A   Overcast
9:35 AM 48.2 °F - 41.0 °F 76% 30.53 in 10.0 mi North 9.2 mph - N/A   Overcast
9:55 AM 48.2 °F - 41.0 °F 76% 30.53 in 10.0 mi NNE 9.2 mph 18.4 mph N/A   Overcast
10:15 AM 48.2 °F - 41.0 °F 76% 30.53 in 10.0 mi NNE 11.5 mph 20.7 mph N/A   Overcast
10:35 AM 48.2 °F - 42.8 °F 82% 30.53 in 10.0 mi NNE 9.2 mph 16.1 mph N/A   Overcast
10:55 AM 50.0 °F - 42.8 °F 76% 30.53 in 10.0 mi NNE 10.4 mph 18.4 mph N/A   Overcast
11:15 AM 51.8 °F - 42.8 °F 71% 30.53 in 10.0 mi NNE 12.7 mph 16.1 mph N/A   Overcast
11:35 AM 50.0 °F - 42.8 °F 76% 30.52 in 10.0 mi North 9.2 mph 18.4 mph N/A   Mostly Cloudy
11:55 AM 51.8 °F - 42.8 °F 71% 30.52 in 10.0 mi North 12.7 mph 19.6 mph N/A   Mostly Cloudy
12:15 PM 50.0 °F - 42.8 °F 76% 30.51 in 10.0 mi North 11.5 mph 18.4 mph N/A   Overcast
12:35 PM 50.0 °F - 42.8 °F 76% 30.51 in 10.0 mi North 11.5 mph 16.1 mph N/A   Overcast
12:55 PM 50.0 °F - 42.8 °F 76% 30.50 in 10.0 mi NNE 12.7 mph 17.3 mph N/A   Overcast
1:15 PM 50.0 °F - 42.8 °F 76% 30.50 in 10.0 mi North 10.4 mph 16.1 mph N/A   Overcast
1:35 PM 50.0 °F - 42.8 °F 76% 30.50 in 10.0 mi North 10.4 mph 16.1 mph N/A   Overcast
1:55 PM 50.0 °F - 42.8 °F 76% 30.50 in 10.0 mi NNE 9.2 mph - N/A   Overcast
2:15 PM 50.0 °F - 42.8 °F 76% 30.49 in 10.0 mi North 11.5 mph 17.3 mph N/A   Overcast
2:35 PM 51.8 °F - 42.8 °F 71% 30.48 in 10.0 mi North 11.5 mph 18.4 mph N/A   Overcast
2:55 PM 50.0 °F - 42.8 °F 76% 30.48 in 10.0 mi NNE 10.4 mph 16.1 mph N/A   Overcast
3:15 PM 50.0 °F - 42.8 °F 76% 30.47 in 10.0 mi North 8.1 mph - N/A   Overcast
3:35 PM 50.0 °F - 42.8 °F 76% 30.47 in 10.0 mi North 9.2 mph - N/A   Overcast
3:55 PM 50.0 °F - 42.8 °F 76% 30.46 in 10.0 mi North 9.2 mph - N/A   Mostly Cloudy
4:15 PM 48.2 °F - 42.8 °F 82% 30.45 in 10.0 mi North 10.4 mph - N/A   Scattered Clouds
4:35 PM 50.0 °F - 42.8 °F 76% 30.45 in 10.0 mi NNE 6.9 mph - N/A   Mostly Cloudy
4:55 PM 50.0 °F - 42.8 °F 76% 30.45 in 10.0 mi NNE 8.1 mph - N/A   Scattered Clouds
5:15 PM 50.0 °F - 42.8 °F 76% 30.44 in 10.0 mi NNE 10.4 mph - N/A   Partly Cloudy
5:35 PM 50.0 °F - 42.8 °F 76% 30.45 in 10.0 mi NNE 8.1 mph - N/A   Partly Cloudy
5:55 PM 48.2 °F - 42.8 °F 82% 30.44 in 10.0 mi North 8.1 mph - N/A   Mostly Cloudy
6:15 PM 48.2 °F - 42.8 °F 82% 30.44 in 10.0 mi NE 6.9 mph - N/A   Scattered Clouds
6:35 PM 48.2 °F - 42.8 °F 82% 30.43 in 10.0 mi NNE 5.8 mph - N/A   Partly Cloudy
6:55 PM 48.2 °F - 42.8 °F 82% 30.43 in 10.0 mi NNE 3.5 mph - N/A   Clear
7:15 PM 48.2 °F - 42.8 °F 82% 30.43 in 10.0 mi NE 3.5 mph - N/A   Clear
7:35 PM 48.2 °F - 42.8 °F 82% 30.42 in 10.0 mi NNE 3.5 mph - N/A   Clear
7:55 PM 46.4 °F 45.2 °F 42.8 °F 87% 30.42 in 10.0 mi NNE 3.5 mph - N/A   Clear
8:15 PM 46.4 °F 45.2 °F 42.8 °F 87% 30.42 in 10.0 mi North 3.5 mph - N/A   Clear
8:35 PM 46.4 °F - 42.8 °F 87% 30.43 in 10.0 mi Calm Calm - N/A   Clear
8:55 PM 44.6 °F - 41.0 °F 87% 30.43 in 10.0 mi Calm Calm - N/A   Clear
9:15 PM 44.6 °F - 41.0 °F 87% 30.43 in 10.0 mi Calm Calm - N/A   Clear
9:35 PM 42.8 °F - 39.2 °F 87% 30.43 in 10.0 mi Calm Calm - N/A   Clear
9:55 PM 42.8 °F - 41.0 °F 93% 30.42 in 8.0 mi Calm Calm - N/A   Clear
10:15 PM 41.0 °F - 39.2 °F 93% 30.41 in 10.0 mi Calm Calm - N/A   Clear
10:35 PM 39.2 °F - 39.2 °F 100% 30.41 in 8.0 mi Calm Calm - N/A   Clear
10:55 PM 39.2 °F - 39.2 °F 100% 30.40 in 10.0 mi Calm Calm - N/A   Clear
11:15 PM 39.2 °F - 37.4 °F 93% 30.39 in 10.0 mi Calm Calm - N/A   Clear
11:35 PM 39.2 °F - 37.4 °F 93% 30.39 in 10.0 mi Calm Calm - N/A   Clear
11:55 PM 39.2 °F - 37.4 °F 93% 30.38 in 10.0 mi Calm Calm - N/A   Clear